Year,Month,Day,Hour,Minute,Value (Times are PST for temperature in C)
2014,07,04,00,00,16.30
2014,07,04,00,01,16.30
2014,07,04,00,02,16.30
2014,07,04,00,03,16.20
2014,07,04,00,04,16.20
2014,07,04,00,05,16.10
2014,07,04,00,06,16.00
2014,07,04,00,07,16.00
2014,07,04,00,08,16.00
2014,07,04,00,09,15.90
2014,07,04,00,10,15.90
2014,07,04,00,11,15.80
2014,07,04,00,12,15.80
2014,07,04,00,13,15.70
2014,07,04,00,14,15.60
2014,07,04,00,15,15.60
2014,07,04,00,16,15.50
2014,07,04,00,17,15.40
2014,07,04,00,18,15.40
2014,07,04,00,19,15.30
2014,07,04,00,20,15.30
2014,07,04,00,21,15.20
2014,07,04,00,22,15.10
2014,07,04,00,23,15.10
2014,07,04,00,24,15.00
2014,07,04,00,25,15.00
2014,07,04,00,26,14.90
2014,07,04,00,27,14.80
2014,07,04,00,28,14.80
2014,07,04,00,29,14.70
2014,07,04,00,30,14.70
2014,07,04,00,31,14.60
2014,07,04,00,32,14.60
2014,07,04,00,33,14.60
2014,07,04,00,34,14.50
2014,07,04,00,35,14.40
2014,07,04,00,36,14.40
2014,07,04,00,37,14.40
2014,07,04,00,38,14.30
2014,07,04,00,39,14.30
2014,07,04,00,40,14.30
2014,07,04,00,41,14.20
2014,07,04,00,42,14.20
2014,07,04,00,43,14.10
2014,07,04,00,44,14.10
2014,07,04,00,45,14.00
2014,07,04,00,46,13.90
2014,07,04,00,47,13.90
2014,07,04,00,48,13.90
2014,07,04,00,49,13.90
2014,07,04,00,50,13.80
2014,07,04,00,51,13.80
2014,07,04,00,52,13.80
2014,07,04,00,53,13.70
2014,07,04,00,54,13.70
2014,07,04,00,55,13.70
2014,07,04,00,56,13.60
2014,07,04,00,57,13.60
2014,07,04,00,58,13.60
2014,07,04,00,59,13.50
2014,07,04,01,00,13.50
2014,07,04,01,01,13.50
2014,07,04,01,02,13.40
2014,07,04,01,03,13.40
2014,07,04,01,04,13.40
2014,07,04,01,05,13.30
2014,07,04,01,06,13.30
2014,07,04,01,07,13.30
2014,07,04,01,08,13.20
2014,07,04,01,09,13.20
2014,07,04,01,10,13.20
2014,07,04,01,11,13.20
2014,07,04,01,12,13.10
2014,07,04,01,13,13.10
2014,07,04,01,14,13.00
2014,07,04,01,15,13.00
2014,07,04,01,16,13.00
2014,07,04,01,17,12.90
2014,07,04,01,18,12.90
2014,07,04,01,19,12.90
2014,07,04,01,20,12.80
2014,07,04,01,21,12.80
2014,07,04,01,22,12.80
2014,07,04,01,23,12.70
2014,07,04,01,24,12.70
2014,07,04,01,25,12.70
2014,07,04,01,26,12.70
2014,07,04,01,27,12.60
2014,07,04,01,28,12.60
2014,07,04,01,29,12.60
2014,07,04,01,30,12.50
2014,07,04,01,31,12.50
2014,07,04,01,32,12.50
2014,07,04,01,33,12.50
2014,07,04,01,34,12.40
2014,07,04,01,35,12.40
2014,07,04,01,36,12.40
2014,07,04,01,37,12.40
2014,07,04,01,38,12.40
2014,07,04,01,39,12.40
2014,07,04,01,40,12.30
2014,07,04,01,41,12.30
2014,07,04,01,42,12.30
2014,07,04,01,43,12.30
2014,07,04,01,44,12.30
2014,07,04,01,45,12.30
2014,07,04,01,46,12.20
2014,07,04,01,47,12.20
2014,07,04,01,48,12.20
2014,07,04,01,49,12.20
2014,07,04,01,50,12.20
2014,07,04,01,51,12.10
2014,07,04,01,52,12.10
2014,07,04,01,53,12.10
2014,07,04,01,54,12.10
2014,07,04,01,55,12.00
2014,07,04,01,56,12.00
2014,07,04,01,57,12.00
2014,07,04,01,58,11.90
2014,07,04,01,59,11.90
2014,07,04,02,00,11.90
2014,07,04,02,01,11.90
2014,07,04,02,02,11.80
2014,07,04,02,03,11.80
2014,07,04,02,04,11.80
2014,07,04,02,05,11.80
2014,07,04,02,06,11.80
2014,07,04,02,07,11.70
2014,07,04,02,08,11.70
2014,07,04,02,09,11.70
2014,07,04,02,10,11.60
2014,07,04,02,11,11.60
2014,07,04,02,12,11.60
2014,07,04,02,13,11.50
2014,07,04,02,14,11.50
2014,07,04,02,15,11.50
2014,07,04,02,16,11.40
2014,07,04,02,17,11.40
2014,07,04,02,18,11.40
2014,07,04,02,19,11.40
2014,07,04,02,20,11.30
2014,07,04,02,21,11.30
2014,07,04,02,22,11.30
2014,07,04,02,23,11.30
2014,07,04,02,24,11.30
2014,07,04,02,25,11.30
2014,07,04,02,26,11.30
2014,07,04,02,27,11.30
2014,07,04,02,28,11.30
2014,07,04,02,29,11.30
2014,07,04,02,30,11.20
2014,07,04,02,31,11.20
2014,07,04,02,32,11.20
2014,07,04,02,33,11.20
2014,07,04,02,34,11.20
2014,07,04,02,35,11.20
2014,07,04,02,36,11.10
2014,07,04,02,37,11.10
2014,07,04,02,38,11.10
2014,07,04,02,39,11.10
2014,07,04,02,40,11.10
2014,07,04,02,41,11.10
2014,07,04,02,42,11.00
2014,07,04,02,43,11.00
2014,07,04,02,44,11.00
2014,07,04,02,45,10.90
2014,07,04,02,46,10.90
2014,07,04,02,47,10.90
2014,07,04,02,48,10.90
2014,07,04,02,49,10.90
2014,07,04,02,50,10.80
2014,07,04,02,51,10.80
2014,07,04,02,52,10.80
2014,07,04,02,53,10.80
2014,07,04,02,54,10.80
2014,07,04,02,55,10.80
2014,07,04,02,56,10.80
2014,07,04,02,57,10.80
2014,07,04,02,58,10.70
2014,07,04,02,59,10.70
2014,07,04,03,00,10.70
2014,07,04,03,01,10.70
2014,07,04,03,02,10.70
2014,07,04,03,06,10.60
2014,07,04,03,07,10.60
2014,07,04,03,08,10.60
2014,07,04,03,09,10.60
2014,07,04,03,10,10.60
2014,07,04,03,11,10.60
2014,07,04,03,12,10.60
2014,07,04,03,13,10.60
2014,07,04,03,14,10.60
2014,07,04,03,15,10.60
2014,07,04,03,16,10.50
2014,07,04,03,17,10.50
2014,07,04,03,18,10.50
2014,07,04,03,19,10.50
2014,07,04,03,20,10.40
2014,07,04,03,21,10.40
2014,07,04,03,22,10.40
2014,07,04,03,23,10.40
2014,07,04,03,24,10.40
2014,07,04,03,25,10.40
2014,07,04,03,26,10.40
2014,07,04,03,27,10.30
2014,07,04,03,28,10.30
2014,07,04,03,29,10.30
2014,07,04,03,30,10.30
2014,07,04,03,31,10.30
2014,07,04,03,32,10.30
2014,07,04,03,33,10.30
2014,07,04,03,34,10.30
2014,07,04,03,35,10.30
2014,07,04,03,36,10.30
2014,07,04,03,37,10.30
2014,07,04,03,38,10.30
2014,07,04,03,39,10.30
2014,07,04,03,40,10.30
2014,07,04,03,41,10.30
2014,07,04,03,42,10.30
2014,07,04,03,43,10.30
2014,07,04,03,44,10.30
2014,07,04,03,45,10.30
2014,07,04,03,46,10.30
2014,07,04,03,47,10.30
2014,07,04,03,48,10.30
2014,07,04,03,49,10.20
2014,07,04,03,50,10.20
2014,07,04,03,51,10.20
2014,07,04,03,52,10.20
2014,07,04,03,53,10.20
2014,07,04,03,54,10.20
2014,07,04,03,55,10.20
2014,07,04,03,56,10.20
2014,07,04,03,57,10.20
2014,07,04,03,58,10.20
2014,07,04,03,59,10.20
2014,07,04,04,00,10.10
2014,07,04,04,01,10.10
2014,07,04,04,02,10.10
2014,07,04,04,03,10.10
2014,07,04,04,04,10.10
2014,07,04,04,05,10.10
2014,07,04,04,06,10.10
2014,07,04,04,07,10.10
2014,07,04,04,08,10.10
2014,07,04,04,09,10.00
2014,07,04,04,10,10.10
2014,07,04,04,11,10.00
2014,07,04,04,12,10.00
2014,07,04,04,13,10.00
2014,07,04,04,14,10.00
2014,07,04,04,15,10.00
2014,07,04,04,16,10.00
2014,07,04,04,17,10.00
2014,07,04,04,18,9.90
2014,07,04,04,19,9.90
2014,07,04,04,20,9.90
2014,07,04,04,21,9.90
2014,07,04,04,22,9.90
2014,07,04,04,23,9.90
2014,07,04,04,24,9.90
2014,07,04,04,25,9.90
2014,07,04,04,26,9.90
2014,07,04,04,27,9.90
2014,07,04,04,28,9.90
2014,07,04,04,29,9.90
2014,07,04,04,30,9.90
2014,07,04,04,31,9.80
2014,07,04,04,32,9.90
2014,07,04,04,33,9.80
2014,07,04,04,34,9.80
2014,07,04,04,35,9.80
2014,07,04,04,36,9.80
2014,07,04,04,37,9.80
2014,07,04,04,38,9.80
2014,07,04,04,39,9.80
2014,07,04,04,40,9.80
2014,07,04,04,41,9.80
2014,07,04,04,42,9.80
2014,07,04,04,43,9.80
2014,07,04,04,44,9.80
2014,07,04,04,45,9.80
2014,07,04,04,46,9.80
2014,07,04,04,47,9.70
2014,07,04,04,48,9.70
2014,07,04,04,49,9.70
2014,07,04,04,50,9.70
2014,07,04,04,51,9.70
2014,07,04,04,52,9.70
2014,07,04,04,53,9.70
2014,07,04,04,54,9.70
2014,07,04,04,55,9.70
2014,07,04,04,56,9.70
2014,07,04,04,57,9.70
2014,07,04,04,58,9.70
2014,07,04,04,59,9.70
2014,07,04,05,00,9.70
2014,07,04,05,01,9.70
2014,07,04,05,02,9.70
2014,07,04,05,03,9.70
2014,07,04,05,04,9.70
2014,07,04,05,05,9.70
2014,07,04,05,06,9.60
2014,07,04,05,07,9.60
2014,07,04,05,08,9.60
2014,07,04,05,09,9.60
2014,07,04,05,10,9.60
2014,07,04,05,11,9.60
2014,07,04,05,12,9.60
2014,07,04,05,13,9.50
2014,07,04,05,14,9.50
2014,07,04,05,15,9.50
2014,07,04,05,16,9.50
2014,07,04,05,17,9.50
2014,07,04,05,18,9.40
2014,07,04,05,19,9.40
2014,07,04,05,20,9.40
2014,07,04,05,21,9.40
2014,07,04,05,22,9.40
2014,07,04,05,23,9.40
2014,07,04,05,24,9.40
2014,07,04,05,25,9.40
2014,07,04,05,26,9.40
2014,07,04,05,27,9.40
2014,07,04,05,28,9.40
2014,07,04,05,29,9.40
2014,07,04,05,30,9.40
2014,07,04,05,31,9.40
2014,07,04,05,32,9.40
2014,07,04,05,33,9.40
2014,07,04,05,34,9.30
2014,07,04,05,35,9.30
2014,07,04,05,36,9.30
2014,07,04,05,37,9.30
2014,07,04,05,38,9.30
2014,07,04,05,39,9.30
2014,07,04,05,40,9.30
2014,07,04,05,41,9.30
2014,07,04,05,42,9.30
2014,07,04,05,43,9.30
2014,07,04,05,44,9.30
2014,07,04,05,45,9.40
2014,07,04,05,46,9.40
2014,07,04,05,47,9.40
2014,07,04,05,48,9.30
2014,07,04,05,49,9.40
2014,07,04,05,50,9.40
2014,07,04,05,51,9.30
2014,07,04,05,52,9.30
2014,07,04,05,53,9.30
2014,07,04,05,54,9.30
2014,07,04,05,55,9.30
2014,07,04,05,56,9.30
2014,07,04,05,57,9.30
2014,07,04,05,58,9.40
2014,07,04,05,59,9.40
2014,07,04,06,00,9.40
2014,07,04,06,01,9.40
2014,07,04,06,02,9.40
2014,07,04,06,03,9.40
2014,07,04,06,04,9.40
2014,07,04,06,05,9.40
2014,07,04,06,06,9.40
2014,07,04,06,07,9.40
2014,07,04,06,08,9.40
2014,07,04,06,09,9.40
2014,07,04,06,10,9.40
2014,07,04,06,11,9.50
2014,07,04,06,12,9.50
2014,07,04,06,13,9.50
2014,07,04,06,14,9.50
2014,07,04,06,15,9.50
2014,07,04,06,16,9.50
2014,07,04,06,17,9.50
2014,07,04,06,18,9.50
2014,07,04,06,19,9.50
2014,07,04,06,20,9.50
2014,07,04,06,21,9.60
2014,07,04,06,22,9.60
2014,07,04,06,23,9.60
2014,07,04,06,24,9.60
2014,07,04,06,25,9.60
2014,07,04,06,26,9.60
2014,07,04,06,27,9.60
2014,07,04,06,28,9.60
2014,07,04,06,29,9.60
2014,07,04,06,30,9.70
2014,07,04,06,31,9.70
2014,07,04,06,32,9.70
2014,07,04,06,33,9.70
2014,07,04,06,34,9.70
2014,07,04,06,35,9.80
2014,07,04,06,36,9.80
2014,07,04,06,37,9.80
2014,07,04,06,38,9.80
2014,07,04,06,39,9.80
2014,07,04,06,40,9.80
2014,07,04,06,41,9.90
2014,07,04,06,42,9.90
2014,07,04,06,43,9.90
2014,07,04,06,44,10.00
2014,07,04,06,45,10.00
2014,07,04,06,46,10.10
2014,07,04,06,47,10.10
2014,07,04,06,48,10.20
2014,07,04,06,49,10.30
2014,07,04,06,50,10.30
2014,07,04,06,51,10.40
2014,07,04,06,52,10.40
2014,07,04,06,53,10.50
2014,07,04,06,54,10.60
2014,07,04,06,55,10.70
2014,07,04,06,56,10.80
2014,07,04,06,57,10.90
2014,07,04,06,58,11.00
2014,07,04,06,59,11.10
2014,07,04,07,00,11.20
2014,07,04,07,01,11.30
2014,07,04,07,02,11.40
2014,07,04,07,03,11.60
2014,07,04,07,04,11.70
2014,07,04,07,05,11.70
2014,07,04,07,06,11.80
2014,07,04,07,07,11.90
2014,07,04,07,08,12.00
2014,07,04,07,09,12.10
2014,07,04,07,10,12.20
2014,07,04,07,11,12.20
2014,07,04,07,12,12.30
2014,07,04,07,13,12.30
2014,07,04,07,14,12.40
2014,07,04,07,15,12.50
2014,07,04,07,16,12.50
2014,07,04,07,17,12.60
2014,07,04,07,18,12.60
2014,07,04,07,19,12.70
2014,07,04,07,20,12.70
2014,07,04,07,21,12.80
2014,07,04,07,22,12.80
2014,07,04,07,23,12.80
2014,07,04,07,24,12.90
2014,07,04,07,25,12.90
2014,07,04,07,26,13.00
2014,07,04,07,27,13.00
2014,07,04,07,28,13.10
2014,07,04,07,29,13.10
2014,07,04,07,30,13.20
2014,07,04,07,31,13.20
2014,07,04,07,32,13.20
2014,07,04,07,33,13.30
2014,07,04,07,34,13.30
2014,07,04,07,35,13.30
2014,07,04,07,36,13.30
2014,07,04,07,37,13.40
2014,07,04,07,38,13.40
2014,07,04,07,39,13.40
2014,07,04,07,40,13.50
2014,07,04,07,41,13.60
2014,07,04,07,42,13.60
2014,07,04,07,43,13.60
2014,07,04,07,44,13.70
2014,07,04,07,45,13.70
2014,07,04,07,46,13.70
2014,07,04,07,47,13.70
2014,07,04,07,48,13.70
2014,07,04,07,49,13.70
2014,07,04,07,50,13.70
2014,07,04,07,51,13.80
2014,07,04,07,52,13.80
2014,07,04,07,53,13.80
2014,07,04,07,54,13.80
2014,07,04,07,55,13.80
2014,07,04,07,56,13.80
2014,07,04,07,57,13.80
2014,07,04,07,58,13.80
2014,07,04,07,59,13.80
2014,07,04,08,00,13.80
2014,07,04,08,01,13.80
2014,07,04,08,02,13.80
2014,07,04,08,03,13.80
2014,07,04,08,04,13.80
2014,07,04,08,05,13.80
2014,07,04,08,06,13.90
2014,07,04,08,07,13.90
2014,07,04,08,08,13.90
2014,07,04,08,09,14.00
2014,07,04,08,10,14.00
2014,07,04,08,11,14.10
2014,07,04,08,12,14.10
2014,07,04,08,13,14.10
2014,07,04,08,14,14.10
2014,07,04,08,15,14.10
2014,07,04,08,16,14.10
2014,07,04,08,17,14.00
2014,07,04,08,18,14.00
2014,07,04,08,19,14.00
2014,07,04,08,20,14.00
2014,07,04,08,21,14.00
2014,07,04,08,22,14.00
2014,07,04,08,23,14.00
2014,07,04,08,24,14.00
2014,07,04,08,25,14.00
2014,07,04,08,26,14.00
2014,07,04,08,27,14.10
2014,07,04,08,28,14.10
2014,07,04,08,29,14.10
2014,07,04,08,30,14.10
2014,07,04,08,31,14.20
2014,07,04,08,32,14.20
2014,07,04,08,33,14.30
2014,07,04,08,34,14.30
2014,07,04,08,35,14.30
2014,07,04,08,36,14.30
2014,07,04,08,37,14.40
2014,07,04,08,38,14.40
2014,07,04,08,39,14.50
2014,07,04,08,40,14.50
2014,07,04,08,41,14.60
2014,07,04,08,42,14.60
2014,07,04,08,43,14.70
2014,07,04,08,44,14.70
2014,07,04,08,45,14.80
2014,07,04,08,46,14.90
2014,07,04,08,47,15.00
2014,07,04,08,48,15.10
2014,07,04,08,49,15.20
2014,07,04,08,50,15.30
2014,07,04,08,51,15.30
2014,07,04,08,52,15.40
2014,07,04,08,53,15.40
2014,07,04,08,54,15.40
2014,07,04,08,55,15.50
2014,07,04,08,56,15.50
2014,07,04,08,57,15.60
2014,07,04,08,58,15.60
2014,07,04,08,59,15.60
2014,07,04,09,00,15.60
2014,07,04,09,01,15.60
2014,07,04,09,02,15.70
2014,07,04,09,03,15.70
2014,07,04,09,04,15.70
2014,07,04,09,05,15.70
2014,07,04,09,06,15.70
2014,07,04,09,07,15.70
2014,07,04,09,08,15.60
2014,07,04,09,09,15.60
2014,07,04,09,10,15.50
2014,07,04,09,11,15.40
2014,07,04,09,12,15.40
2014,07,04,09,13,15.40
2014,07,04,09,14,15.40
2014,07,04,09,15,15.40
2014,07,04,09,16,15.40
2014,07,04,09,17,15.40
2014,07,04,09,18,15.40
2014,07,04,09,19,15.40
2014,07,04,09,20,15.40
2014,07,04,09,21,15.50
2014,07,04,09,22,15.60
2014,07,04,09,23,15.60
2014,07,04,09,24,15.70
2014,07,04,09,25,15.70
2014,07,04,09,26,15.70
2014,07,04,09,27,15.70
2014,07,04,09,28,15.70
2014,07,04,09,29,15.70
2014,07,04,09,30,15.70
2014,07,04,09,31,15.70
2014,07,04,09,32,15.70
2014,07,04,09,33,15.80
2014,07,04,09,34,15.80
2014,07,04,09,35,15.80
2014,07,04,09,36,15.90
2014,07,04,09,37,15.90
2014,07,04,09,38,15.90
2014,07,04,09,39,15.90
2014,07,04,09,40,16.00
2014,07,04,09,41,15.90
2014,07,04,09,42,15.90
2014,07,04,09,43,15.90
2014,07,04,09,44,15.80
2014,07,04,09,45,15.80
2014,07,04,09,46,15.80
2014,07,04,09,47,15.90
2014,07,04,09,48,15.90
2014,07,04,09,49,15.90
2014,07,04,09,50,15.90
2014,07,04,09,51,16.00
2014,07,04,09,52,16.00
2014,07,04,09,53,16.00
2014,07,04,09,54,16.00
2014,07,04,09,55,15.90
2014,07,04,09,56,15.90
2014,07,04,09,57,15.80
2014,07,04,09,58,15.80
2014,07,04,09,59,15.70
2014,07,04,10,00,15.70
2014,07,04,10,01,15.70
2014,07,04,10,02,15.60
2014,07,04,10,03,15.60
2014,07,04,10,04,15.70
2014,07,04,10,05,15.70
2014,07,04,10,06,15.70
2014,07,04,10,07,15.80
2014,07,04,10,08,15.80
2014,07,04,10,09,15.90
2014,07,04,10,10,16.00
2014,07,04,10,11,16.00
2014,07,04,10,12,16.10
2014,07,04,10,13,16.20
2014,07,04,10,14,16.30
2014,07,04,10,15,16.40
2014,07,04,10,16,16.50
2014,07,04,10,17,16.50
2014,07,04,10,18,16.60
2014,07,04,10,19,16.60
2014,07,04,10,20,16.60
2014,07,04,10,21,16.60
2014,07,04,10,22,16.60
2014,07,04,10,23,16.60
2014,07,04,10,24,16.70
2014,07,04,10,25,16.70
2014,07,04,10,26,16.70
2014,07,04,10,27,16.70
2014,07,04,10,28,16.70
2014,07,04,10,29,16.70
2014,07,04,10,30,16.80
2014,07,04,10,31,16.80
2014,07,04,10,32,16.90
2014,07,04,10,33,16.90
2014,07,04,10,34,16.90
2014,07,04,10,35,16.80
2014,07,04,10,36,16.70
2014,07,04,10,37,16.70
2014,07,04,10,38,16.60
2014,07,04,10,39,16.60
2014,07,04,10,40,16.50
2014,07,04,10,41,16.50
2014,07,04,10,42,16.50
2014,07,04,10,43,16.50
2014,07,04,10,44,16.60
2014,07,04,10,45,16.60
2014,07,04,10,46,16.60
2014,07,04,10,47,16.70
2014,07,04,10,48,16.70
2014,07,04,10,49,16.70
2014,07,04,10,50,16.70
2014,07,04,10,51,16.70
2014,07,04,10,52,16.80
2014,07,04,10,53,16.80
2014,07,04,10,54,16.80
2014,07,04,10,55,16.80
2014,07,04,10,56,16.80
2014,07,04,10,57,16.80
2014,07,04,10,58,16.80
2014,07,04,10,59,16.80
2014,07,04,11,00,16.80
2014,07,04,11,01,16.80
2014,07,04,11,02,16.90
2014,07,04,11,03,16.90
2014,07,04,11,04,16.90
2014,07,04,11,05,17.00
2014,07,04,11,06,17.00
2014,07,04,11,07,17.00
2014,07,04,11,08,17.00
2014,07,04,11,09,17.00
2014,07,04,11,10,17.00
2014,07,04,11,11,17.00
2014,07,04,11,12,17.00
2014,07,04,11,13,17.10
2014,07,04,11,14,17.20
2014,07,04,11,15,17.20
2014,07,04,11,16,17.30
2014,07,04,11,17,17.30
2014,07,04,11,18,17.30
2014,07,04,11,19,17.20
2014,07,04,11,20,17.20
2014,07,04,11,21,17.20
2014,07,04,11,22,17.20
2014,07,04,11,23,17.20
2014,07,04,11,24,17.20
2014,07,04,11,25,17.30
2014,07,04,11,26,17.30
2014,07,04,11,27,17.30
2014,07,04,11,28,17.40
2014,07,04,11,29,17.50
2014,07,04,11,30,17.50
2014,07,04,11,31,17.60
2014,07,04,11,32,17.70
2014,07,04,11,33,17.70
2014,07,04,11,34,17.70
2014,07,04,11,35,17.70
2014,07,04,11,36,17.70
2014,07,04,11,37,17.80
2014,07,04,11,38,17.80
2014,07,04,11,39,17.70
2014,07,04,11,40,17.80
2014,07,04,11,41,17.80
2014,07,04,11,42,17.80
2014,07,04,11,43,17.70
2014,07,04,11,44,17.70
2014,07,04,11,45,17.60
2014,07,04,11,46,17.70
2014,07,04,11,47,17.70
2014,07,04,11,48,17.70
2014,07,04,11,49,17.70
2014,07,04,11,50,17.70
2014,07,04,11,51,17.70
2014,07,04,11,52,17.80
2014,07,04,11,53,17.80
2014,07,04,11,54,17.80
2014,07,04,11,55,17.80
2014,07,04,11,56,17.80
2014,07,04,11,57,17.80
2014,07,04,11,58,17.80
2014,07,04,11,59,17.90
2014,07,04,12,00,17.90
2014,07,04,12,01,17.90
2014,07,04,12,02,18.00
2014,07,04,12,03,18.10
2014,07,04,12,04,18.10
2014,07,04,12,05,18.10
2014,07,04,12,06,18.10
2014,07,04,12,07,18.10
2014,07,04,12,08,18.10
2014,07,04,12,09,18.10
2014,07,04,12,10,18.00
2014,07,04,12,11,18.10
2014,07,04,12,12,18.10
2014,07,04,12,13,18.10
2014,07,04,12,14,18.10
2014,07,04,12,15,18.10
2014,07,04,12,16,18.10
2014,07,04,12,17,18.10
2014,07,04,12,18,18.10
2014,07,04,12,19,18.10
2014,07,04,12,20,18.10
2014,07,04,12,21,18.10
2014,07,04,12,22,18.10
2014,07,04,12,23,18.10
2014,07,04,12,24,18.20
2014,07,04,12,25,18.20
2014,07,04,12,26,18.30
2014,07,04,12,27,18.30
2014,07,04,12,28,18.30
2014,07,04,12,29,18.30
2014,07,04,12,30,18.30
2014,07,04,12,31,18.30
2014,07,04,12,32,18.30
2014,07,04,12,33,18.30
2014,07,04,12,34,18.20
2014,07,04,12,35,18.20
2014,07,04,12,36,18.20
2014,07,04,12,37,18.10
2014,07,04,12,38,18.10
2014,07,04,12,39,18.10
2014,07,04,12,40,18.10
2014,07,04,12,41,18.10
2014,07,04,12,42,18.10
2014,07,04,12,43,18.10
2014,07,04,12,44,18.00
2014,07,04,12,45,18.00
2014,07,04,12,46,18.00
2014,07,04,12,47,18.00
2014,07,04,12,48,18.00
2014,07,04,12,49,18.00
2014,07,04,12,50,18.10
2014,07,04,12,51,18.10
2014,07,04,12,52,18.10
2014,07,04,12,53,18.10
2014,07,04,12,54,18.10
2014,07,04,12,55,18.10
2014,07,04,12,56,18.10
2014,07,04,12,57,18.10
2014,07,04,12,58,18.10
2014,07,04,12,59,18.00
2014,07,04,13,00,18.00
2014,07,04,13,01,17.90
2014,07,04,13,02,17.90
2014,07,04,13,03,17.90
2014,07,04,13,04,17.80
2014,07,04,13,05,17.80
2014,07,04,13,06,17.80
2014,07,04,13,07,17.70
2014,07,04,13,08,17.70
2014,07,04,13,09,17.70
2014,07,04,13,10,17.70
2014,07,04,13,11,17.70
2014,07,04,13,12,17.60
2014,07,04,13,13,17.60
2014,07,04,13,14,17.60
2014,07,04,13,15,17.60
2014,07,04,13,16,17.50
2014,07,04,13,17,17.60
2014,07,04,13,18,17.60
2014,07,04,13,19,17.60
2014,07,04,13,20,17.60
2014,07,04,13,21,17.60
2014,07,04,13,22,17.60
2014,07,04,13,23,17.60
2014,07,04,13,24,17.60
2014,07,04,13,25,17.60
2014,07,04,13,26,17.60
2014,07,04,13,27,17.60
2014,07,04,13,28,17.70
2014,07,04,13,29,17.70
2014,07,04,13,30,17.80
2014,07,04,13,31,17.80
2014,07,04,13,32,17.80
2014,07,04,13,33,17.80
2014,07,04,13,34,17.80
2014,07,04,13,35,17.80
2014,07,04,13,36,17.80
2014,07,04,13,37,17.80
2014,07,04,13,38,17.80
2014,07,04,13,39,17.80
2014,07,04,13,40,17.80
2014,07,04,13,41,17.80
2014,07,04,13,42,17.90
2014,07,04,13,43,17.90
2014,07,04,13,44,18.00
2014,07,04,13,45,18.00
2014,07,04,13,46,18.00
2014,07,04,13,47,18.10
2014,07,04,13,48,18.10
2014,07,04,13,49,18.10
2014,07,04,13,50,18.10
2014,07,04,13,51,18.20
2014,07,04,13,52,18.20
2014,07,04,13,53,18.20
2014,07,04,13,54,18.30
2014,07,04,13,55,18.40
2014,07,04,13,56,18.40
2014,07,04,13,57,18.50
2014,07,04,13,58,18.50
2014,07,04,13,59,18.60
2014,07,04,14,00,18.60
2014,07,04,14,01,18.60
2014,07,04,14,02,18.60
2014,07,04,14,03,18.70
2014,07,04,14,04,18.70
2014,07,04,14,05,18.70
2014,07,04,14,06,18.70
2014,07,04,14,07,18.70
2014,07,04,14,08,18.70
2014,07,04,14,09,18.70
2014,07,04,14,10,18.70
2014,07,04,14,11,18.60
2014,07,04,14,12,18.60
2014,07,04,14,13,18.50
2014,07,04,14,14,18.40
2014,07,04,14,15,18.40
2014,07,04,14,16,18.30
2014,07,04,14,17,18.30
2014,07,04,14,18,18.20
2014,07,04,14,19,18.10
2014,07,04,14,20,18.10
2014,07,04,14,21,18.00
2014,07,04,14,22,17.90
2014,07,04,14,23,17.90
2014,07,04,14,24,17.90
2014,07,04,14,25,17.80
2014,07,04,14,26,17.80
2014,07,04,14,27,17.80
2014,07,04,14,28,17.80
2014,07,04,14,29,17.80
2014,07,04,14,30,17.80
2014,07,04,14,31,17.80
2014,07,04,14,32,17.80
2014,07,04,14,33,17.80
2014,07,04,14,34,17.80
2014,07,04,14,35,17.80
2014,07,04,14,36,17.80
2014,07,04,14,37,17.80
2014,07,04,14,38,17.80
2014,07,04,14,39,17.80
2014,07,04,14,40,17.80
2014,07,04,14,41,17.80
2014,07,04,14,42,17.80
2014,07,04,14,43,17.90
2014,07,04,14,44,17.90
2014,07,04,14,45,17.90
2014,07,04,14,46,17.90
2014,07,04,14,47,17.90
2014,07,04,14,48,17.90
2014,07,04,14,49,17.90
2014,07,04,14,50,18.00
2014,07,04,14,51,18.00
2014,07,04,14,52,18.10
2014,07,04,14,53,18.10
2014,07,04,14,54,18.10
2014,07,04,14,55,18.10
2014,07,04,14,56,18.00
2014,07,04,14,57,18.00
2014,07,04,14,58,18.00
2014,07,04,14,59,17.90
2014,07,04,15,00,17.90
2014,07,04,15,01,17.90
2014,07,04,15,02,17.90
2014,07,04,15,03,18.00
2014,07,04,15,04,18.00
2014,07,04,15,05,18.00
2014,07,04,15,06,18.00
2014,07,04,15,07,18.00
2014,07,04,15,08,18.00
2014,07,04,15,09,18.00
2014,07,04,15,10,18.00
2014,07,04,15,11,18.00
2014,07,04,15,12,18.00
2014,07,04,15,13,18.00
2014,07,04,15,14,18.00
2014,07,04,15,15,18.00
2014,07,04,15,16,17.90
2014,07,04,15,17,17.90
2014,07,04,15,18,17.90
2014,07,04,15,19,17.90
2014,07,04,15,20,17.80
2014,07,04,15,21,17.80
2014,07,04,15,22,17.70
2014,07,04,15,23,17.70
2014,07,04,15,24,17.70
2014,07,04,15,25,17.70
2014,07,04,15,26,17.70
2014,07,04,15,27,17.60
2014,07,04,15,28,17.60
2014,07,04,15,29,17.60
2014,07,04,15,30,17.60
2014,07,04,15,31,17.50
2014,07,04,15,32,17.50
2014,07,04,15,33,17.50
2014,07,04,15,34,17.50
2014,07,04,15,35,17.50
2014,07,04,15,36,17.50
2014,07,04,15,37,17.50
2014,07,04,15,38,17.40
2014,07,04,15,39,17.40
2014,07,04,15,40,17.40
2014,07,04,15,41,17.40
2014,07,04,15,42,17.40
2014,07,04,15,43,17.30
2014,07,04,15,44,17.30
2014,07,04,15,45,17.30
2014,07,04,15,46,17.30
2014,07,04,15,47,17.40
2014,07,04,15,48,17.40
2014,07,04,15,49,17.40
2014,07,04,15,50,17.40
2014,07,04,15,51,17.40
2014,07,04,15,52,17.40
2014,07,04,15,53,17.40
2014,07,04,15,54,17.40
2014,07,04,15,55,17.40
2014,07,04,15,56,17.50
2014,07,04,15,57,17.50
2014,07,04,15,58,17.50
2014,07,04,15,59,17.50
2014,07,04,16,00,17.50
2014,07,04,16,01,17.60
2014,07,04,16,02,17.60
2014,07,04,16,03,17.60
2014,07,04,16,04,17.60
2014,07,04,16,05,17.60
2014,07,04,16,06,17.60
2014,07,04,16,07,17.70
2014,07,04,16,08,17.70
2014,07,04,16,09,17.70
2014,07,04,16,10,17.70
2014,07,04,16,11,17.70
2014,07,04,16,12,17.70
2014,07,04,16,13,17.70
2014,07,04,16,14,17.70
2014,07,04,16,15,17.70
2014,07,04,16,16,17.70
2014,07,04,16,17,17.70
2014,07,04,16,18,17.70
2014,07,04,16,19,17.60
2014,07,04,16,20,17.60
2014,07,04,16,21,17.50
2014,07,04,16,22,17.50
2014,07,04,16,23,17.40
2014,07,04,16,24,17.40
2014,07,04,16,25,17.40
2014,07,04,16,26,17.40
2014,07,04,16,27,17.30
2014,07,04,16,28,17.30
2014,07,04,16,29,17.30
2014,07,04,16,30,17.30
2014,07,04,16,31,17.30
2014,07,04,16,32,17.20
2014,07,04,16,33,17.20
2014,07,04,16,34,17.20
2014,07,04,16,35,17.20
2014,07,04,16,36,17.20
2014,07,04,16,37,17.20
2014,07,04,16,38,17.30
2014,07,04,16,39,17.30
2014,07,04,16,40,17.30
2014,07,04,16,41,17.30
2014,07,04,16,42,17.30
2014,07,04,16,43,17.30
2014,07,04,16,44,17.30
2014,07,04,16,45,17.40
2014,07,04,16,46,17.40
2014,07,04,16,47,17.40
2014,07,04,16,48,17.40
2014,07,04,16,49,17.40
2014,07,04,16,50,17.40
2014,07,04,16,51,17.40
2014,07,04,16,52,17.30
2014,07,04,16,53,17.30
2014,07,04,16,54,17.30
2014,07,04,16,55,17.20
2014,07,04,16,56,17.20
2014,07,04,16,57,17.10
2014,07,04,16,58,17.10
2014,07,04,16,59,17.10
2014,07,04,17,00,17.10
2014,07,04,17,01,17.10
2014,07,04,17,02,17.10
2014,07,04,17,03,17.10
2014,07,04,17,04,17.10
2014,07,04,17,05,17.10
2014,07,04,17,06,17.00
2014,07,04,17,07,17.00
2014,07,04,17,08,17.00
2014,07,04,17,09,17.00
2014,07,04,17,10,17.00
2014,07,04,17,11,16.90
2014,07,04,17,12,16.90
2014,07,04,17,13,16.90
2014,07,04,17,14,16.90
2014,07,04,17,15,16.90
2014,07,04,17,16,16.90
2014,07,04,17,17,16.90
2014,07,04,17,18,17.00
2014,07,04,17,19,17.00
2014,07,04,17,20,17.00
2014,07,04,17,21,17.00
2014,07,04,17,22,17.00
2014,07,04,17,23,17.00
2014,07,04,17,24,17.00
2014,07,04,17,25,17.00
2014,07,04,17,26,17.00
2014,07,04,17,27,17.00
2014,07,04,17,28,17.00